Time,TemperatureF,DewpointF,PressureIn,WindDirection,WindDirectionDegrees,WindSpeedMPH,WindSpeedGustMPH,Humidity,HourlyPrecipIn,Conditions,Clouds,dailyrainin,SolarRadiationWatts/m^2,SoftwareType,DateUTC
2014-12-22 00:00:00,44.6,42.1,30.11,NNE,21,0.0,0.0,91,0.00,,,0.01,0,wxd,2014-12-22 05:00:00,
2014-12-22 00:05:00,44.6,42.4,30.10,NNE,21,0.0,0.0,92,0.00,,,0.01,0,wxd,2014-12-22 05:05:00,
2014-12-22 00:10:00,44.5,42.3,30.10,NNE,21,0.0,0.0,92,0.00,,,0.01,0,wxd,2014-12-22 05:10:00,
2014-12-22 00:15:00,44.5,42.3,30.10,NNE,22,0.0,1.0,92,0.00,,,0.01,0,wxd,2014-12-22 05:15:00,
2014-12-22 00:20:00,44.3,42.1,30.10,NNE,33,0.0,2.0,92,0.00,,,0.01,0,wxd,2014-12-22 05:20:00,
2014-12-22 00:25:00,44.3,42.1,30.10,NE,51,0.0,1.0,92,0.00,,,0.01,0,wxd,2014-12-22 05:25:00,
2014-12-22 00:30:00,44.3,42.1,30.10,NE,51,0.0,1.0,92,0.00,,,0.01,0,wxd,2014-12-22 05:30:00,
2014-12-22 00:35:00,44.3,42.4,30.09,NE,52,0.0,2.0,93,0.00,,,0.01,0,wxd,2014-12-22 05:35:00,
2014-12-22 00:40:00,44.2,42.3,30.09,NE,54,0.0,2.0,93,0.00,,,0.01,0,wxd,2014-12-22 05:40:00,
2014-12-22 00:50:00,44.1,42.2,30.09,ENE,58,0.0,4.0,93,0.00,,,0.01,0,wxd,2014-12-22 05:50:00,
2014-12-22 00:55:00,44.1,42.2,30.09,ENE,74,0.0,2.0,93,0.00,,,0.01,0,wxd,2014-12-22 05:55:00,
2014-12-22 01:00:00,44.1,42.2,30.09,ENE,73,0.0,2.0,93,0.00,,,0.01,0,wxd,2014-12-22 06:00:00,
2014-12-22 01:05:00,44.1,42.5,30.08,ENE,73,0.0,2.0,94,0.00,,,0.01,0,wxd,2014-12-22 06:05:00,
2014-12-22 01:10:00,43.9,42.0,30.08,ENE,62,0.0,2.0,93,0.00,,,0.01,0,wxd,2014-12-22 06:10:00,
2014-12-22 01:15:00,43.9,42.3,30.08,ENE,59,0.0,2.0,94,0.00,,,0.01,0,wxd,2014-12-22 06:15:00,
2014-12-22 01:20:00,43.9,42.3,30.07,ENE,59,0.0,2.0,94,0.00,,,0.01,0,wxd,2014-12-22 06:20:00,
2014-12-22 01:25:00,43.9,42.3,30.07,NE,44,0.0,2.0,94,0.00,,,0.01,0,wxd,2014-12-22 06:25:00,
2014-12-22 01:30:00,43.9,42.3,30.07,NE,48,1.0,3.0,94,0.00,,,0.01,0,wxd,2014-12-22 06:30:00,
2014-12-22 01:35:00,43.9,42.3,30.07,NNE,29,0.0,3.0,94,0.00,,,0.01,0,wxd,2014-12-22 06:35:00,
2014-12-22 01:40:00,43.9,42.3,30.07,NNE,19,0.0,3.0,94,0.01,RA,,0.02,0,wxd,2014-12-22 06:40:00,
2014-12-22 01:45:00,43.9,42.3,30.07,NE,54,0.0,2.0,94,0.00,,,0.02,0,wxd,2014-12-22 06:45:00,
2014-12-22 01:50:00,43.8,42.2,30.06,NE,38,0.0,3.0,94,0.00,,,0.02,0,wxd,2014-12-22 06:50:00,
2014-12-22 01:55:00,43.8,42.2,30.06,NNE,26,0.0,3.0,94,0.00,,,0.02,0,wxd,2014-12-22 06:55:00,
2014-12-22 02:00:00,43.8,42.2,30.06,NE,35,0.0,3.0,94,0.00,,,0.02,0,wxd,2014-12-22 07:00:00,
2014-12-22 02:05:00,43.9,42.3,30.07,NE,54,0.0,3.0,94,0.00,,,0.02,0,wxd,2014-12-22 07:05:00,
2014-12-22 02:10:00,43.9,42.3,30.07,NE,53,0.0,2.0,94,0.00,,,0.02,0,wxd,2014-12-22 07:10:00,
2014-12-22 02:15:00,43.9,42.3,30.07,NE,55,0.0,2.0,94,0.00,,,0.02,0,wxd,2014-12-22 07:15:00,
2014-12-22 02:20:00,43.9,42.3,30.06,NE,56,0.0,2.0,94,0.00,,,0.02,0,wxd,2014-12-22 07:20:00,
2014-12-22 02:25:00,43.9,42.3,30.06,NE,53,1.0,3.0,94,0.00,,,0.02,0,wxd,2014-12-22 07:25:00,
2014-12-22 02:30:00,43.9,42.3,30.06,NNE,27,0.0,3.0,94,0.00,,,0.02,0,wxd,2014-12-22 07:30:00,
2014-12-22 02:40:00,43.8,42.2,30.06,NE,56,0.0,4.0,94,0.00,,,0.02,0,wxd,2014-12-22 07:40:00,
2014-12-22 02:45:00,43.8,42.2,30.06,NE,48,0.0,3.0,94,0.00,,,0.02,0,wxd,2014-12-22 07:45:00,
2014-12-22 02:55:00,43.8,42.2,30.06,NNE,33,0.0,3.0,94,0.00,,,0.02,0,wxd,2014-12-22 07:55:00,
2014-12-22 03:00:00,43.6,42.0,30.06,NE,55,1.0,3.0,94,0.00,,,0.02,0,wxd,2014-12-22 08:00:00,
2014-12-22 03:05:00,43.6,42.0,30.05,NE,51,0.0,2.0,94,0.00,,,0.02,0,wxd,2014-12-22 08:05:00,
2014-12-22 03:10:00,43.6,42.0,30.05,NE,53,0.0,2.0,94,0.00,,,0.02,0,wxd,2014-12-22 08:10:00,
2014-12-22 03:15:00,43.6,42.0,30.05,NE,55,0.0,3.0,94,0.00,,,0.02,0,wxd,2014-12-22 08:15:00,
2014-12-22 03:20:00,43.5,41.9,30.05,NE,56,0.0,3.0,94,0.00,,,0.02,0,wxd,2014-12-22 08:20:00,
2014-12-22 03:25:00,43.5,41.9,30.05,NE,42,1.0,4.0,94,0.00,,,0.02,0,wxd,2014-12-22 08:25:00,
2014-12-22 03:30:00,43.5,41.9,30.05,NE,50,1.0,4.0,94,0.01,RA,,0.03,0,wxd,2014-12-22 08:30:00,
2014-12-22 03:35:00,43.5,41.9,30.05,ENE,61,1.0,5.0,94,0.00,,,0.03,0,wxd,2014-12-22 08:35:00,
2014-12-22 03:40:00,43.5,41.9,30.05,NE,54,1.0,5.0,94,0.00,,,0.03,0,wxd,2014-12-22 08:40:00,
2014-12-22 03:45:00,43.5,41.9,30.05,ENE,70,0.0,4.0,94,0.00,,,0.03,0,wxd,2014-12-22 08:45:00,
2014-12-22 03:50:00,43.5,41.9,30.04,NE,56,0.0,3.0,94,0.00,,,0.03,0,wxd,2014-12-22 08:50:00,
2014-12-22 03:55:00,43.3,41.7,30.04,NE,55,1.0,4.0,94,0.00,,,0.03,0,wxd,2014-12-22 08:55:00,
2014-12-22 04:00:00,43.3,41.7,30.04,ENE,60,2.0,4.0,94,0.00,,,0.03,0,wxd,2014-12-22 09:00:00,
2014-12-22 04:05:00,43.3,41.7,30.04,NE,48,2.0,5.0,94,0.00,,,0.03,0,wxd,2014-12-22 09:05:00,
2014-12-22 04:10:00,43.3,41.7,30.04,NE,38,2.0,5.0,94,0.00,,,0.03,0,wxd,2014-12-22 09:10:00,
2014-12-22 04:15:00,43.3,41.7,30.04,NNE,27,1.0,5.0,94,0.00,,,0.03,0,wxd,2014-12-22 09:15:00,
2014-12-22 04:20:00,43.2,41.6,30.04,NE,55,1.0,4.0,94,0.00,,,0.03,0,wxd,2014-12-22 09:20:00,
2014-12-22 04:25:00,43.2,41.6,30.04,NE,51,0.0,2.0,94,0.00,,,0.03,0,wxd,2014-12-22 09:25:00,
2014-12-22 04:30:00,43.2,41.6,30.04,ENE,60,1.0,4.0,94,0.00,,,0.03,0,wxd,2014-12-22 09:30:00,
2014-12-22 04:35:00,43.1,41.8,30.03,ENE,64,1.0,4.0,95,0.00,,,0.03,0,wxd,2014-12-22 09:35:00,
2014-12-22 04:40:00,43.1,41.8,30.03,NE,51,1.0,4.0,95,0.00,,,0.03,0,wxd,2014-12-22 09:40:00,
2014-12-22 04:45:00,43.1,41.8,30.03,ENE,62,2.0,4.0,95,0.00,,,0.03,0,wxd,2014-12-22 09:45:00,
2014-12-22 04:50:00,43.1,41.8,30.03,ENE,60,2.0,5.0,95,0.00,,,0.03,0,wxd,2014-12-22 09:50:00,
2014-12-22 04:55:00,43.1,41.8,30.03,ENE,66,1.0,3.0,95,0.00,,,0.03,0,wxd,2014-12-22 09:55:00,
2014-12-22 05:00:00,43.1,41.8,30.03,NE,44,0.0,3.0,95,0.00,,,0.03,0,wxd,2014-12-22 10:00:00,
2014-12-22 05:05:00,43.1,41.8,30.03,NE,40,1.0,4.0,95,0.00,,,0.03,0,wxd,2014-12-22 10:05:00,
2014-12-22 05:10:00,43.1,41.8,30.03,ENE,58,1.0,4.0,95,0.00,,,0.03,0,wxd,2014-12-22 10:10:00,
2014-12-22 05:15:00,43.1,41.8,30.03,NE,53,1.0,4.0,95,0.00,,,0.03,0,wxd,2014-12-22 10:15:00,
2014-12-22 05:20:00,43.1,41.8,30.03,ENE,60,1.0,3.0,95,0.00,,,0.03,0,wxd,2014-12-22 10:20:00,
2014-12-22 05:25:00,42.9,41.6,30.03,NE,56,1.0,4.0,95,0.00,,,0.03,0,wxd,2014-12-22 10:25:00,
2014-12-22 05:30:00,43.1,41.8,30.03,NE,55,0.0,3.0,95,0.00,,,0.03,0,wxd,2014-12-22 10:30:00,
2014-12-22 05:35:00,43.1,41.8,30.03,ENE,57,1.0,3.0,95,0.00,,,0.03,0,wxd,2014-12-22 10:35:00,
2014-12-22 05:40:00,43.1,41.8,30.03,NE,53,1.0,4.0,95,0.00,,,0.03,0,wxd,2014-12-22 10:40:00,
2014-12-22 05:50:00,43.1,41.8,30.03,ENE,64,1.0,4.0,95,0.00,,,0.03,0,wxd,2014-12-22 10:50:00,
2014-12-22 05:55:00,42.9,41.6,30.03,NE,56,1.0,4.0,95,0.00,,,0.03,0,wxd,2014-12-22 10:55:00,
2014-12-22 06:00:00,42.9,41.6,30.03,NE,56,0.0,3.0,95,0.00,,,0.03,0,wxd,2014-12-22 11:00:00,
2014-12-22 06:05:00,42.9,41.6,30.04,ENE,73,1.0,3.0,95,0.00,,,0.03,0,wxd,2014-12-22 11:05:00,
2014-12-22 06:10:00,42.9,41.6,30.04,NE,39,1.0,4.0,95,0.00,,,0.03,0,wxd,2014-12-22 11:10:00,
2014-12-22 06:15:00,42.9,41.6,30.04,ENE,60,1.0,4.0,95,0.00,,,0.03,0,wxd,2014-12-22 11:15:00,
2014-12-22 06:25:00,42.9,41.6,30.05,NNE,26,0.0,2.0,95,0.00,,,0.03,0,wxd,2014-12-22 11:25:00,
2014-12-22 06:30:00,42.9,41.6,30.05,NE,47,0.0,3.0,95,0.00,,,0.03,0,wxd,2014-12-22 11:30:00,
2014-12-22 06:35:00,42.9,41.6,30.05,ENE,57,0.0,2.0,95,0.00,,,0.03,0,wxd,2014-12-22 11:35:00,
2014-12-22 06:45:00,42.8,41.5,30.05,NE,43,1.0,4.0,95,0.00,,,0.03,0,wxd,2014-12-22 11:45:00,
2014-12-22 06:50:00,42.8,41.5,30.03,NNE,29,1.0,3.0,95,0.00,,,0.03,0,wxd,2014-12-22 11:50:00,
2014-12-22 06:55:00,42.8,41.5,30.03,ENE,63,1.0,3.0,95,0.00,,,0.03,0,wxd,2014-12-22 11:55:00,
2014-12-22 07:00:00,42.8,41.5,30.03,ENE,71,0.0,3.0,95,0.00,,,0.03,0,wxd,2014-12-22 12:00:00,
2014-12-22 07:05:00,42.6,41.3,30.04,ENE,58,0.0,2.0,95,0.00,,,0.03,0,wxd,2014-12-22 12:05:00,
2014-12-22 07:10:00,42.6,41.3,30.04,NE,48,0.0,2.0,95,0.00,,,0.03,0,wxd,2014-12-22 12:10:00,
2014-12-22 07:15:00,42.6,41.3,30.04,NE,51,0.0,2.0,95,0.00,,,0.03,0,wxd,2014-12-22 12:15:00,
2014-12-22 07:20:00,42.6,41.3,30.05,NE,51,0.0,3.0,95,0.00,,,0.03,0,wxd,2014-12-22 12:20:00,
2014-12-22 07:25:00,42.6,41.3,30.05,ENE,70,1.0,3.0,95,0.00,,,0.03,0,wxd,2014-12-22 12:25:00,
2014-12-22 07:30:00,42.6,41.5,30.05,ENE,59,1.0,3.0,96,0.00,,,0.03,0,wxd,2014-12-22 12:30:00,
2014-12-22 07:35:00,42.5,41.4,30.05,ENE,61,1.0,4.0,96,0.00,,,0.03,0,wxd,2014-12-22 12:35:00,
2014-12-22 07:40:00,42.5,41.4,30.05,NE,54,0.0,2.0,96,0.00,,,0.03,0,wxd,2014-12-22 12:40:00,
2014-12-22 07:45:00,42.5,41.4,30.05,NNE,23,0.0,2.0,96,0.00,,,0.03,0,wxd,2014-12-22 12:45:00,
2014-12-22 07:50:00,42.5,41.4,30.05,NE,41,1.0,3.0,96,0.00,,,0.03,0,wxd,2014-12-22 12:50:00,
2014-12-22 07:55:00,42.5,41.4,30.05,ENE,69,1.0,4.0,96,0.00,,,0.03,0,wxd,2014-12-22 12:55:00,
2014-12-22 08:00:00,42.5,41.4,30.05,ENE,71,0.0,1.0,96,0.00,,,0.03,0,wxd,2014-12-22 13:00:00,
2014-12-22 08:05:00,42.5,41.4,30.06,ENE,71,0.0,2.0,96,0.00,,,0.03,0,wxd,2014-12-22 13:05:00,
2014-12-22 08:10:00,42.3,41.2,30.06,ENE,71,0.0,2.0,96,0.00,,,0.03,5,wxd,2014-12-22 13:10:00,
2014-12-22 08:15:00,42.3,41.2,30.06,ENE,70,0.0,2.0,96,0.00,,,0.03,9,wxd,2014-12-22 13:15:00,
2014-12-22 08:20:00,42.3,41.2,30.06,NE,44,0.0,3.0,96,0.00,,,0.03,9,wxd,2014-12-22 13:20:00,
2014-12-22 08:25:00,42.3,41.2,30.06,ENE,61,0.0,4.0,96,0.00,,,0.03,12,wxd,2014-12-22 13:25:00,
2014-12-22 08:30:00,42.3,41.2,30.06,ENE,59,1.0,3.0,96,0.00,,,0.03,12,wxd,2014-12-22 13:30:00,
2014-12-22 08:35:00,42.3,41.2,30.05,NE,44,1.0,4.0,96,0.00,,,0.03,16,wxd,2014-12-22 13:35:00,
2014-12-22 08:40:00,42.2,41.1,30.05,NE,56,1.0,3.0,96,0.00,,,0.03,18,wxd,2014-12-22 13:40:00,
2014-12-22 08:45:00,42.2,41.1,30.05,NE,49,0.0,3.0,96,0.00,,,0.03,12,wxd,2014-12-22 13:45:00,
2014-12-22 08:50:00,42.2,41.1,30.06,NE,45,0.0,2.0,96,0.00,,,0.03,14,wxd,2014-12-22 13:50:00,
2014-12-22 08:55:00,42.2,41.1,30.06,NE,55,0.0,4.0,96,0.00,,,0.03,18,wxd,2014-12-22 13:55:00,
2014-12-22 09:00:00,42.2,41.1,30.06,NE,56,1.0,4.0,96,0.00,,,0.03,23,wxd,2014-12-22 14:00:00,
2014-12-22 09:05:00,42.2,41.1,30.05,NE,49,1.0,3.0,96,0.00,,,0.03,21,wxd,2014-12-22 14:05:00,
2014-12-22 09:10:00,42.2,41.1,30.05,NE,36,1.0,3.0,96,0.00,,,0.03,16,wxd,2014-12-22 14:10:00,
2014-12-22 09:15:00,42.2,41.1,30.05,NE,38,0.0,3.0,96,0.00,,,0.03,19,wxd,2014-12-22 14:15:00,
2014-12-22 09:20:00,42.2,41.1,30.05,NE,47,2.0,6.0,96,0.00,,,0.03,26,wxd,2014-12-22 14:20:00,
2014-12-22 09:25:00,42.2,41.1,30.05,NE,42,0.0,2.0,96,0.00,,,0.03,21,wxd,2014-12-22 14:25:00,
2014-12-22 09:30:00,42.3,41.2,30.05,ENE,73,0.0,1.0,96,0.00,,,0.03,19,wxd,2014-12-22 14:30:00,
2014-12-22 09:35:00,42.3,41.2,30.06,ENE,60,1.0,3.0,96,0.00,,,0.03,23,wxd,2014-12-22 14:35:00,
2014-12-22 09:40:00,42.2,41.1,30.06,NE,44,1.0,4.0,96,0.00,,,0.03,25,wxd,2014-12-22 14:40:00,
2014-12-22 09:45:00,42.2,41.1,30.06,NE,52,1.0,4.0,96,0.00,,,0.03,30,wxd,2014-12-22 14:45:00,
2014-12-22 09:50:00,42.2,41.1,30.06,NE,35,1.0,4.0,96,0.00,,,0.03,30,wxd,2014-12-22 14:50:00,
2014-12-22 09:55:00,42.1,41.0,30.06,NE,53,2.0,5.0,96,0.00,,,0.03,35,wxd,2014-12-22 14:55:00,
2014-12-22 10:00:00,42.1,41.0,30.06,ENE,61,2.0,6.0,96,0.00,,,0.03,32,wxd,2014-12-22 15:00:00,
2014-12-22 10:05:00,42.2,41.1,30.06,ENE,71,1.0,4.0,96,0.00,,,0.03,39,wxd,2014-12-22 15:05:00,
2014-12-22 10:10:00,42.2,41.1,30.06,ENE,63,1.0,5.0,96,0.00,,,0.03,35,wxd,2014-12-22 15:10:00,
2014-12-22 10:15:00,42.2,41.1,30.06,East,80,0.0,3.0,96,0.00,,,0.03,33,wxd,2014-12-22 15:15:00,
2014-12-22 10:20:00,42.3,41.2,30.05,East,84,1.0,5.0,96,0.00,,,0.03,42,wxd,2014-12-22 15:20:00,
2014-12-22 10:25:00,42.3,41.0,30.05,ENE,59,2.0,4.0,95,0.00,,,0.03,51,wxd,2014-12-22 15:25:00,
2014-12-22 10:30:00,42.3,41.0,30.05,NE,56,2.0,5.0,95,0.00,,,0.03,35,wxd,2014-12-22 15:30:00,
2014-12-22 10:35:00,42.3,41.2,30.06,NE,34,1.0,4.0,96,0.00,,,0.03,33,wxd,2014-12-22 15:35:00,
2014-12-22 10:40:00,42.2,40.9,30.06,NNE,33,1.0,5.0,95,0.00,,,0.03,33,wxd,2014-12-22 15:40:00,
2014-12-22 10:45:00,42.1,40.8,30.06,NE,50,2.0,5.0,95,0.00,,,0.03,35,wxd,2014-12-22 15:45:00,
2014-12-22 10:50:00,42.1,40.8,30.05,NE,50,2.0,5.0,95,0.00,,,0.03,35,wxd,2014-12-22 15:50:00,
2014-12-22 10:55:00,42.1,40.8,30.05,ENE,68,1.0,4.0,95,0.00,,,0.03,46,wxd,2014-12-22 15:55:00,
2014-12-22 11:00:00,42.1,40.8,30.05,ENE,61,2.0,4.0,95,0.00,,,0.03,42,wxd,2014-12-22 16:00:00,
2014-12-22 11:05:00,42.1,40.8,30.05,ENE,57,1.0,4.0,95,0.00,,,0.03,37,wxd,2014-12-22 16:05:00,
2014-12-22 11:10:00,42.1,40.8,30.05,NE,56,2.0,4.0,95,0.00,,,0.03,33,wxd,2014-12-22 16:10:00,
2014-12-22 11:15:00,42.1,40.8,30.05,NE,50,1.0,4.0,95,0.00,,,0.03,37,wxd,2014-12-22 16:15:00,
2014-12-22 11:20:00,42.1,40.8,30.05,NE,45,0.0,3.0,95,0.00,,,0.03,30,wxd,2014-12-22 16:20:00,
2014-12-22 11:25:00,41.9,40.6,30.05,NE,50,1.0,4.0,95,0.00,,,0.03,35,wxd,2014-12-22 16:25:00,
2014-12-22 11:30:00,41.9,40.6,30.05,NE,44,1.0,4.0,95,0.00,,,0.03,35,wxd,2014-12-22 16:30:00,
2014-12-22 11:35:00,41.9,40.6,30.04,NE,40,2.0,5.0,95,0.00,,,0.03,42,wxd,2014-12-22 16:35:00,
2014-12-22 11:40:00,41.8,40.5,30.04,ENE,58,1.0,4.0,95,0.00,,,0.03,54,wxd,2014-12-22 16:40:00,
2014-12-22 11:45:00,41.9,40.6,30.04,NE,56,2.0,6.0,95,0.00,,,0.03,51,wxd,2014-12-22 16:45:00,
2014-12-22 11:50:00,41.9,40.6,30.01,NE,42,2.0,5.0,95,0.00,,,0.03,47,wxd,2014-12-22 16:50:00,
2014-12-22 11:55:00,41.8,40.5,30.01,NNE,31,2.0,6.0,95,0.00,,,0.03,40,wxd,2014-12-22 16:55:00,
2014-12-22 12:00:00,41.6,40.3,30.01,ENE,62,2.0,6.0,95,0.00,,,0.03,39,wxd,2014-12-22 17:00:00,
2014-12-22 12:05:00,41.5,40.2,30.01,ENE,68,2.0,7.0,95,0.00,,,0.03,30,wxd,2014-12-22 17:05:00,
2014-12-22 12:10:00,41.5,40.2,30.01,ENE,70,1.0,4.0,95,0.00,,,0.03,47,wxd,2014-12-22 17:10:00,
2014-12-22 12:15:00,41.3,39.7,30.01,ENE,67,2.0,4.0,94,0.00,,,0.03,44,wxd,2014-12-22 17:15:00,
2014-12-22 12:20:00,41.3,40.0,30.00,ENE,59,2.0,4.0,95,0.00,,,0.03,39,wxd,2014-12-22 17:20:00,
2014-12-22 12:25:00,41.3,39.7,30.00,ENE,64,2.0,4.0,94,0.00,,,0.03,37,wxd,2014-12-22 17:25:00,
2014-12-22 12:30:00,41.3,39.7,30.00,NE,39,2.0,4.0,94,0.00,,,0.03,28,wxd,2014-12-22 17:30:00,
2014-12-22 12:35:00,41.2,39.6,30.01,ENE,60,1.0,4.0,94,0.00,,,0.03,32,wxd,2014-12-22 17:35:00,
2014-12-22 12:40:00,41.3,39.7,30.01,ENE,65,1.0,4.0,94,0.00,,,0.03,32,wxd,2014-12-22 17:40:00,
2014-12-22 12:45:00,41.2,39.6,30.01,ENE,61,2.0,5.0,94,0.00,,,0.03,39,wxd,2014-12-22 17:45:00,
2014-12-22 12:50:00,41.2,39.6,29.99,ENE,68,2.0,4.0,94,0.00,,,0.03,40,wxd,2014-12-22 17:50:00,
2014-12-22 12:55:00,41.2,39.6,29.99,NE,55,1.0,5.0,94,0.00,,,0.03,42,wxd,2014-12-22 17:55:00,
2014-12-22 13:00:00,41.2,39.6,29.99,NE,51,1.0,3.0,94,0.00,,,0.03,33,wxd,2014-12-22 18:00:00,
2014-12-22 13:05:00,41.2,39.9,29.99,ENE,75,1.0,4.0,95,0.00,,,0.03,35,wxd,2014-12-22 18:05:00,